Location: Passo di Treia
(43.2833°N, 13.3333°E)
Time: 05:26:07
(UTC+00:00)

NOSS 0 Rocket - Pass Details

Date: 09 December 2019
Orbit: 934 x 956 km, 70.0° (Epoch: 22 January)

Event Time Altitude Azimuth Distance (km) Brightness Sun altitude
Rises 16:09:59 0° 193° (SSW) 3,594 7.6 -7.1°
Reaches altitude 10° 16:12:31 10° 190° (S) 2,656 6.8 -7.5°
Maximum altitude 16:18:35 62° 111° (ESE) 1,061 4.0 -8.5°
Drops below altitude 10° 16:24:43 10° 32° (NNE) 2,687 5.8 -9.6°
Enters shadow 16:26:02 - 31° (NNE) 3,169 6.2 -9.8°
